Wind_Speed
56 55 53 52 50 48 47 44 43 42 41 41 41 40 39 38 37 36 36 36 37 36 36 36 36 36 37 37 38 39 40 41 42 42 43 43 44 45 45 47 49 51 54
55 54 53 52 52 49 47 45 44 42 41 41 41 40 39 38 37 36 36 36 37 37 37 36 36 37 37 38 38 39 40 41 42 42 43 43 44 45 46 48 50 53 55
55 54 53 52 52 50 48 46 45 43 42 41 41 40 38 37 36 36 36 36 36 37 36 36 36 37 37 38 39 40 40 42 42 42 43 43 44 46 47 49 52 54 56
56 55 53 53 52 51 49 47 45 44 43 41 40 39 38 37 37 36 36 36 36 36 36 36 37 37 37 38 39 40 41 41 41 42 42 43 46 47 49 50 52 55 56
57 55 54 52 52 52 51 48 46 45 43 41 40 39 38 38 37 36 36 36 36 37 37 37 37 37 37 38 39 39 40 40 41 42 43 45 46 47 49 51 53 55 56
56 54 53 52 52 52 51 49 47 45 45 43 40 40 40 39 38 37 37 36 37 37 36 35 36 37 37 37 38 39 39 40 40 41 43 45 46 48 50 52 54 55 56
55 54 53 52 52 52 51 49 48 46 44 44 43 41 41 39 38 37 37 38 37 37 36 35 35 36 36 37 38 38 39 40 41 42 43 45 47 49 51 53 54 55 56
54 54 54 53 52 51 51 49 48 46 45 45 45 43 42 41 40 40 39 38 37 36 36 35 35 35 36 37 37 38 39 40 41 42 44 46 47 50 51 53 54 56 57
54 54 53 53 53 52 51 50 48 47 46 45 44 44 43 43 42 41 39 37 37 36 35 34 34 35 35 36 37 38 38 39 41 42 44 45 47 49 51 53 54 55 57
54 54 53 53 53 52 51 50 50 48 46 46 45 43 43 42 41 40 39 38 37 36 35 34 34 35 35 36 37 37 38 39 41 42 43 45 47 49 51 52 54 55 56
52 53 53 52 52 52 51 50 49 48 47 46 44 43 43 42 41 40 39 38 36 35 34 34 34 35 35 36 36 37 37 39 41 42 44 45 47 48 50 52 53 55 56
50 51 51 51 51 51 51 50 48 47 47 45 44 43 42 41 40 39 37 36 35 34 33 34 34 34 35 36 35 36 37 38 40 42 43 45 46 48 50 52 53 54 55
48 49 49 49 49 49 49 49 48 47 46 44 42 41 40 39 39 38 36 35 34 33 33 33 33 34 34 33 34 35 37 38 40 41 43 44 46 48 51 52 53 54 55
47 47 48 48 46 46 47 47 46 45 44 42 40 39 38 37 36 35 34 33 32 31 32 32 32 32 32 32 33 35 36 38 40 41 42 44 46 49 50 51 53 53 55
45 46 46 46 46 44 44 44 44 43 41 41 39 38 37 35 33 32 31 30 30 30 30 30 30 30 30 32 33 34 36 37 38 39 41 44 46 48 50 51 52 53 54
44 44 45 45 44 43 43 43 42 41 40 39 38 36 34 32 31 30 29 28 28 28 28 28 28 28 29 30 32 33 35 36 37 39 42 44 46 49 50 51 52 53 53
43 43 43 43 42 41 41 41 40 39 38 37 35 33 31 30 29 29 27 26 26 26 26 26 27 28 29 30 31 32 34 35 37 39 41 44 46 48 50 50 52 52 52
41 41 41 41 41 40 40 39 38 37 35 34 32 31 30 29 28 27 26 25 25 25 25 26 26 27 28 29 30 31 33 35 37 39 41 44 46 48 49 50 51 51 51
39 39 40 40 39 39 39 37 36 35 33 32 31 30 29 28 27 25 24 24 24 24 24 24 25 26 27 28 29 30 32 34 37 39 41 44 46 48 49 50 50 51 51
40 40 41 40 38 37 36 36 35 33 32 31 29 28 28 26 25 24 24 23 23 23 23 23 24 24 25 27 28 30 33 35 37 39 41 43 46 48 48 49 50 50 49
40 40 40 39 37 36 34 33 32 32 30 29 28 27 26 25 23 23 22 22 22 22 22 22 22 24 25 27 28 31 33 35 37 39 41 43 46 47 47 48 49 49 46
38 38 38 37 36 34 32 31 31 30 29 28 26 25 24 23 22 22 21 21 20 20 20 21 22 23 25 26 29 31 33 35 37 39 41 43 45 46 47 48 48 46 44
36 37 37 36 35 34 32 31 29 28 27 26 24 24 23 22 21 20 19 19 18 18 19 19 21 22 24 26 29 31 33 35 37 39 41 43 44 45 47 47 46 44 42
35 35 35 34 33 32 31 30 29 27 26 25 24 23 22 21 20 18 18 18 17 17 18 19 20 22 24 27 29 31 33 34 37 39 41 42 43 45 46 46 44 42 41
33 33 32 32 31 31 30 29 28 26 25 23 22 21 20 20 18 17 17 17 16 17 18 19 20 22 25 27 29 30 32 34 37 39 40 41 43 45 45 44 42 40 40
32 31 31 30 29 29 28 27 26 25 24 22 21 20 20 18 18 17 17 17 17 17 18 19 21 22 25 27 28 30 32 34 36 38 40 41 43 44 43 42 40 39 39
Wind_Direction
216 218 218 219 220 221 223 225 226 228 231 233 236 238 242 246 250 254 258 261 264 267 270 274 278 281 284 288 291 294 297 299 301 303 304 304 305 307 308 309 309 311 312
217 218 219 220 221 222 223 225 227 228 231 233 236 239 242 246 250 254 258 261 264 267 271 274 277 281 284 287 291 294 296 299 301 303 304 304 306 307 308 308 309 311 313
217 218 219 221 221 222 223 226 228 229 231 233 236 239 242 246 250 254 258 261 264 267 270 274 277 281 284 287 290 294 297 299 301 302 303 304 306 307 308 309 310 312 313
217 219 220 221 222 223 224 225 228 229 231 233 236 239 243 246 250 254 258 261 263 266 270 273 276 281 284 287 291 294 297 298 300 302 303 304 306 307 309 310 311 313 314
218 219 221 222 223 224 224 225 227 229 231 234 236 239 243 246 250 255 260 261 264 268 271 274 276 280 284 288 292 294 296 298 300 302 304 305 306 308 310 311 313 314 315
217 218 220 222 223 224 225 225 227 230 232 234 237 239 243 247 251 255 260 262 266 269 272 274 277 281 285 289 292 295 296 299 301 302 304 306 308 310 311 312 314 315 316
216 217 219 222 224 225 227 227 228 230 231 234 237 240 244 247 251 255 259 262 265 269 272 274 278 282 286 289 292 294 296 299 301 303 305 307 309 311 313 314 315 316 317
218 219 220 221 223 225 227 229 230 232 233 236 238 242 245 248 251 254 258 262 265 268 271 275 278 282 286 289 291 294 297 299 301 304 306 308 310 313 314 315 317 318 319
219 220 221 221 223 225 227 228 229 232 236 238 240 243 245 248 251 255 257 261 265 268 271 274 278 281 285 288 291 295 298 300 302 305 307 309 311 313 315 316 317 318 320
220 220 221 222 223 225 227 229 230 232 235 238 241 243 245 247 251 254 256 260 264 268 271 274 277 281 285 289 292 295 298 300 303 306 308 310 312 314 316 317 318 319 320
220 220 221 223 224 224 226 229 230 232 234 237 240 242 244 247 250 253 256 260 264 267 271 274 278 282 286 289 292 295 298 300 304 306 308 311 313 315 317 319 320 320 321
220 221 221 222 223 224 226 228 229 232 234 236 239 241 243 246 248 251 256 260 264 266 270 274 278 282 285 288 292 296 299 302 305 307 310 312 314 317 319 320 320 321 323
219 220 220 221 223 225 227 229 231 232 234 236 239 240 243 245 247 251 256 260 263 265 269 273 278 282 285 289 292 296 299 303 306 308 311 314 316 319 321 321 322 323 324
218 219 219 221 223 226 228 229 231 232 234 237 239 240 242 245 247 251 254 259 261 265 269 274 278 282 286 290 293 296 300 304 306 309 313 315 318 320 322 322 324 325 326
217 218 219 221 224 226 227 228 229 231 232 234 237 239 242 244 245 249 254 258 262 266 270 275 278 282 287 291 293 297 301 304 307 311 314 317 319 321 322 323 325 326 327
216 217 219 221 222 223 225 226 226 228 230 232 235 237 240 243 246 249 253 256 261 266 270 276 280 284 289 292 296 299 302 305 309 313 316 318 320 322 324 324 325 327 327
218 218 218 218 218 220 221 222 224 225 227 229 232 236 238 242 245 248 252 255 260 266 271 276 282 286 290 293 297 300 303 307 311 315 318 320 322 324 325 325 326 328 328
217 215 215 215 216 216 217 218 221 222 224 227 230 233 237 241 244 248 251 255 261 267 273 279 284 288 291 294 298 301 305 310 313 316 319 321 323 325 326 327 328 329 329
212 212 211 211 213 215 216 216 217 219 222 226 229 233 237 239 243 246 250 256 262 269 275 281 284 288 292 296 300 303 307 311 315 318 320 322 324 326 327 328 329 330 330
209 210 211 211 211 213 213 215 217 219 221 226 228 231 235 237 240 245 251 257 263 269 275 281 285 288 293 298 302 306 310 314 316 319 321 323 325 327 328 329 330 330 331
208 209 210 209 207 208 211 213 215 217 220 222 225 229 231 235 240 245 251 258 264 269 275 280 285 290 295 300 304 309 312 315 317 320 322 325 327 329 329 330 331 332 332
201 203 204 205 207 208 210 212 214 216 218 220 224 228 231 235 239 246 252 258 264 269 275 282 289 294 298 302 307 311 313 315 318 321 323 326 328 330 330 331 332 333 333
198 199 201 203 205 207 210 211 213 214 216 219 224 228 231 235 239 245 252 258 264 270 277 285 292 297 301 306 309 312 315 317 319 322 324 327 329 330 331 332 333 334 333
197 196 197 200 204 206 209 211 213 215 216 219 223 226 231 235 239 246 253 258 263 270 278 287 295 300 304 308 310 313 316 318 321 323 326 327 329 331 332 333 334 334 334
196 197 198 200 204 206 208 211 213 214 215 217 221 225 230 234 240 247 253 258 264 272 281 290 297 302 306 309 312 315 317 320 323 325 326 327 330 332 333 334 333 334 335
195 198 200 201 202 204 207 209 211 214 216 218 221 225 229 234 241 247 254 260 266 275 283 291 298 304 308 311 314 316 319 322 324 326 327 329 330 332 333 334 334 334 335
Height
5637 5646 5654 5662 5670 5677 5683 5690 5695 5700 5705 5710 5715 5719 5722 5726 5728 5731 5733 5734 5736 5736 5737 5736 5736 5735 5734 5732 5730 5727 5724 5721 5718 5714 5709 5705 5700 5694 5688 5683 5677 5670 5663
5628 5637 5646 5654 5661 5668 5675 5681 5687 5692 5697 5702 5707 5711 5715 5718 5721 5723 5725 5727 5728 5728 5729 5729 5728 5727 5726 5724 5722 5719 5716 5713 5709 5705 5701 5696 5691 5686 5680 5674 5667 5660 5653
5619 5628 5637 5644 5652 5660 5667 5673 5678 5684 5689 5694 5699 5703 5707 5710 5713 5716 5717 5719 5720 5720 5721 5721 5720 5719 5718 5716 5714 5711 5708 5704 5701 5697 5693 5687 5682 5677 5671 5665 5657 5650 5641
5610 5619 5628 5636 5644 5652 5658 5664 5670 5676 5681 5686 5691 5695 5699 5703 5705 5708 5710 5711 5712 5712 5713 5713 5712 5711 5710 5708 5706 5703 5700 5696 5692 5688 5684 5679 5674 5668 5662 5656 5648 5640 5631
5601 5610 5619 5628 5635 5642 5649 5655 5662 5668 5673 5678 5683 5687 5691 5694 5697 5700 5702 5703 5704 5704 5705 5705 5704 5703 5702 5700 5698 5695 5692 5688 5684 5680 5676 5671 5665 5659 5653 5646 5638 5630 5621
5592 5602 5611 5619 5626 5633 5640 5646 5653 5659 5665 5670 5674 5679 5683 5686 5689 5692 5694 5695 5696 5697 5697 5697 5696 5695 5693 5692 5689 5687 5684 5680 5676 5672 5667 5662 5656 5650 5643 5636 5628 5621 5613
5584 5593 5602 5610 5617 5625 5632 5638 5644 5651 5656 5662 5666 5671 5675 5678 5681 5683 5685 5687 5688 5688 5689 5689 5688 5687 5685 5683 5681 5678 5675 5672 5668 5664 5659 5653 5647 5641 5634 5626 5617 5609 5601
5575 5584 5592 5601 5609 5616 5623 5630 5637 5642 5648 5653 5658 5662 5666 5670 5672 5675 5677 5678 5679 5680 5681 5681 5680 5679 5677 5675 5673 5670 5667 5664 5660 5655 5650 5644 5638 5631 5624 5616 5607 5598 5589
5566 5575 5584 5592 5600 5607 5614 5621 5628 5634 5640 5645 5649 5654 5658 5661 5664 5666 5668 5669 5671 5672 5673 5673 5672 5671 5669 5667 5665 5663 5659 5655 5651 5646 5641 5635 5628 5621 5614 5606 5597 5588 5579
5558 5566 5575 5583 5591 5598 5606 5612 5619 5625 5631 5636 5641 5645 5649 5653 5656 5658 5660 5662 5663 5664 5665 5664 5664 5663 5661 5659 5657 5654 5651 5647 5642 5637 5632 5626 5619 5612 5604 5596 5587 5578 5569
5549 5557 5566 5574 5582 5589 5596 5603 5610 5616 5622 5627 5632 5637 5640 5644 5647 5649 5652 5654 5655 5656 5656 5656 5656 5655 5653 5651 5648 5646 5642 5638 5634 5629 5623 5616 5610 5602 5594 5586 5577 5569 5559
5541 5549 5558 5565 5573 5580 5587 5594 5600 5606 5613 5618 5623 5628 5631 5635 5638 5641 5644 5646 5647 5648 5648 5648 5647 5646 5645 5643 5640 5637 5634 5630 5625 5620 5614 5607 5601 5593 5585 5577 5568 5559 5549
5532 5541 5549 5557 5564 5571 5578 5585 5591 5598 5604 5610 5615 5619 5623 5627 5630 5633 5635 5637 5639 5640 5640 5640 5639 5638 5637 5635 5632 5629 5625 5621 5616 5611 5605 5599 5592 5584 5576 5567 5558 5549 5539
5524 5532 5540 5548 5556 5563 5570 5576 5583 5590 5596 5602 5607 5611 5615 5619 5622 5625 5627 5629 5631 5632 5632 5632 5631 5630 5629 5626 5624 5621 5617 5613 5608 5602 5596 5590 5583 5575 5567 5558 5549 5539 5529
5516 5524 5532 5540 5547 5554 5561 5568 5575 5582 5588 5594 5599 5603 5607 5611 5614 5617 5620 5622 5623 5624 5624 5624 5624 5622 5621 5619 5616 5613 5609 5605 5600 5594 5588 5582 5574 5567 5558 5549 5540 5531 5521
5509 5517 5524 5532 5539 5546 5553 5560 5566 5574 5580 5585 5590 5595 5600 5604 5607 5610 5612 5614 5615 5617 5617 5617 5616 5615 5613 5611 5608 5605 5601 5597 5592 5586 5580 5573 5566 5558 5550 5541 5532 5522 5513
5502 5509 5517 5524 5532 5539 5546 5553 5560 5566 5571 5577 5583 5588 5593 5597 5600 5603 5605 5607 5608 5609 5609 5609 5608 5607 5605 5603 5600 5597 5593 5589 5584 5578 5572 5565 5558 5550 5541 5532 5523 5514 5504
5495 5502 5509 5517 5525 5533 5540 5547 5553 5560 5565 5571 5576 5581 5585 5590 5593 5596 5598 5600 5601 5602 5602 5602 5601 5600 5598 5596 5593 5590 5586 5581 5576 5570 5564 5557 5550 5542 5533 5524 5515 5506 5496
5489 5496 5504 5512 5519 5527 5533 5540 5547 5553 5559 5565 5570 5574 5579 5583 5586 5589 5591 5593 5594 5595 5595 5595 5594 5593 5591 5588 5586 5582 5578 5574 5568 5563 5557 5549 5542 5534 5525 5516 5507 5498 5489
5483 5491 5499 5507 5514 5521 5528 5535 5541 5548 5554 5559 5564 5569 5572 5576 5579 5582 5585 5587 5588 5588 5588 5588 5587 5586 5584 5581 5579 5575 5571 5566 5561 5555 5549 5542 5534 5526 5518 5509 5500 5491 5481
5478 5486 5494 5501 5509 5516 5523 5530 5536 5542 5548 5554 5558 5563 5567 5570 5574 5576 5578 5580 5581 5582 5582 5581 5580 5579 5577 5575 5572 5568 5564 5559 5554 5548 5541 5534 5527 5519 5510 5501 5493 5483 5474
5474 5481 5489 5497 5504 5512 5519 5525 5532 5537 5543 5548 5552 5557 5561 5564 5567 5570 5572 5574 5575 5575 5575 5575 5574 5573 5570 5568 5565 5561 5557 5552 5547 5541 5534 5527 5520 5511 5503 5494 5486 5477 5469
5470 5478 5486 5493 5500 5507 5514 5521 5527 5533 5538 5543 5547 5552 5556 5559 5562 5564 5566 5568 5568 5569 5569 5569 5568 5566 5564 5562 5558 5555 5550 5545 5540 5534 5527 5520 5513 5505 5496 5488 5479 5471 5463
5467 5474 5482 5489 5496 5503 5510 5517 5523 5528 5534 5538 5543 5547 5551 5554 5557 5559 5561 5562 5563 5563 5563 5563 5562 5560 5558 5555 5552 5548 5543 5538 5533 5527 5520 5513 5506 5498 5490 5481 5473 5465 5458
5464 5471 5479 5486 5493 5500 5506 5512 5518 5524 5529 5533 5538 5542 5546 5549 5551 5553 5555 5557 5557 5558 5558 5557 5556 5554 5552 5549 5545 5541 5537 5532 5526 5520 5514 5507 5499 5491 5483 5475 5467 5460 5453
5462 5469 5476 5483 5489 5496 5502 5508 5514 5519 5524 5529 5533 5537 5541 5544 5546 5548 5550 5551 5552 5552 5552 5552 5550 5548 5546 5543 5539 5535 5531 5525 5520 5514 5507 5500 5493 5485 5477 5469 5462 5455 5448